Location: Oshawa
(43.9000°N, 78.8670°W)
Time: 20:45:39
(UTC-04:00)

Daily predictions for brighter satellites

Satellite Brightness Start Highest point End
(mag) Time Altitude Azimuth Time Altitude Azimuth Time Altitude Azimuth
Cosmos 2322 3.7 18:38:28 10° NNW 18:44:14 74° ENE 18:49:55 10° SSE
Cosmos 1726 3.8 18:43:24 10° ESE 18:45:29 15° E 18:47:34 10° NE
CZ-4 R/B 1.4 18:41:43 10° SSE 18:45:54 74° ENE 18:50:01 10° N
EO 1 Del DPAF 3.9 18:44:01 10° NNE 18:47:33 34° E 18:51:03 10° SSE
CZ-2C R/B 3.7 18:44:04 10° NNE 18:48:34 65° ESE 18:52:58 10° S
IRS-1A Rocket 4.4 18:44:19 10° SSE 18:50:11 77° ENE 18:56:06 10° NNW
Cosmos 2219 Rocket 2.9 18:45:34 10° N 18:50:33 32° NE 18:55:31 10° ESE
Landsat 4 3.6 18:47:45 10° NNE 18:51:29 69° ESE 18:55:11 10° S
BREEZE-M DEB (TANK) 1.4 18:54:30 10° WSW 18:57:01 80° SSE 18:58:56 11° ENE
METEOR-M 4.3 18:52:12 10° SSE 18:57:23 53° ENE 19:02:35 10° N
CZ-4 R/B 4.4 18:53:22 10° SSE 18:57:26 62° ENE 19:01:34 10° N
Cosmos 2084 4.2 18:57:35 10° NNW 19:00:52 27° NE 19:04:13 10° ESE
Cosmos 2218 Rocket 4.3 18:54:51 10° SSW 19:00:58 73° W 19:07:08 10° N
Meteor 1-28 Rocket 3.1 18:57:46 10° NNE 19:01:34 83° ESE 19:05:19 10° S
Cosmos 2221 2.9 18:57:33 10° SSE 19:01:36 41° E 19:05:43 10° NNE
Meteor 2-1 Rocket 4.3 18:56:34 10° S 19:02:22 75° E 19:08:17 10° NNE
ALOS 2.9 18:58:55 10° SE 19:03:07 34° ENE 19:07:19 10° N
Cosmos 1315 Rocket 2.8 18:59:53 10° N 19:03:58 70° E 19:08:04 10° SSE
Cosmos 921 Rocket 3.1 19:00:25 10° NNW 19:04:53 88° W 19:09:14 10° SSE
Ariane Rocket 4.2 19:00:35 10° S 19:05:30 48° W 19:10:27 10° NNW
SKYMED 2 3.8 19:02:12 10° NNE 19:06:26 49° E 19:10:38 10° S
Cosmos 1743 Rocket 4.3 19:02:13 10° NNW 19:06:33 60° W 19:10:53 10° S
Cosmos 1727 Rocket 4.2 19:00:42 10° N 19:07:06 84° W 19:13:24 10° S
GP-B 3.2 19:05:06 10° N 19:09:35 85° W 19:14:00 10° S
Cosmos 1484 Rocket 4.3 19:10:51 10° SSW 19:14:20 39° W 19:17:50 10° NNW
Cosmos 1626 3.9 19:13:37 10° NNW 19:17:05 37° W 19:20:32 10° SSW
Cosmos 1842 Rocket 4.3 19:12:50 10° SSW 19:17:14 59° W 19:21:38 10° N
Cosmos 2333 4.2 19:14:26 10° NNW 19:20:11 77° ENE 19:25:57 10° SSE
Cosmos 1703 4.5 19:17:04 10° NNW 19:20:51 46° W 19:24:35 10° SSW
Cosmos 2123 Rocket 4.5 19:16:32 10° N 19:22:16 37° ENE 19:28:00 10° SE
BREEZE-M R/B 4.1 19:21:14 10° SSE 19:22:59 16° SE 19:23:15 15° ESE
Cosmos 1908 3.3 19:20:49 10° S 19:24:43 85° W 19:28:39 10° N
Lacrosse 5 rocket 3.7 19:23:52 10° NW 19:26:14 14° N 19:28:33 10° NNE
SJ-6B 4.0 19:25:54 20° ENE 19:26:14 20° ENE 19:29:00 10° NNE
Cosmos 2237 Rocket 2.9 19:22:39 10° N 19:27:50 34° NE 19:31:45 16° ESE
MONITOR-E 4.4 19:27:23 10° S 19:30:26 71° WSW 19:33:32 10° NNW
Cosmos 44 3.0 19:26:20 10° SW 19:30:41 86° WNW 19:35:02 10° NNE
Cosmos 1269 Rocket 4.0 19:25:32 10° S 19:30:45 68° ESE 19:36:01 10° NNE
Aureole 2 Rocket 2.7 19:29:58 10° NNW 19:33:53 68° ENE 19:37:57 10° SSE
H-2A R/B 3.5 19:32:05 15° SE 19:34:42 32° ENE 19:38:14 10° N
SL-8 R/B 4.1 19:30:50 10° W 19:35:35 57° NNW 19:38:45 21° ENE
Cosmos 2227 Rocket 3.0 19:31:55 10° SSE 19:36:35 27° ESE 19:39:16 19° ENE
NOSS 0 Rocket 4.0 19:32:34 10° NNW 19:38:40 57° ENE 19:44:41 10° SE
SL-16 R/B 3.5 19:36:04 10° N 19:40:18 21° NE 19:41:21 20° ENE
USA 234 4.5 19:36:24 14° NE 19:40:55 29° N 19:46:21 10° NW
Gbstr 26 Del rocket 3.7 19:36:56 10° WNW 19:41:53 75° SW 19:47:06 14° SE
Abrixas rocket 2.9 19:39:29 10° WNW 19:42:38 41° N 19:43:32 32° NE
SPOT 3 Rocket 3.8 19:37:57 10° S 19:43:08 72° WSW 19:48:23 10° NNW
Iridium 4 Rocket 3.7 19:37:39 10° S 19:43:19 84° E 19:49:16 10° N
Cosmos 2360 Rocket 4.3 19:43:01 10° NW 19:47:46 28° WSW 19:52:30 10° SSW
Cosmos 1300 2.7 19:45:05 10° S 19:48:49 55° E 19:52:34 10° NNE
Cosmos 494 Rocket 4.3 19:44:34 10° S 19:49:19 40° ESE 19:52:56 16° NE
Sich 1 3.0 19:45:22 10° N 19:49:44 65° E 19:54:07 10° SSE
ATLAS 5 CENTAUR R/B 4.4 19:50:25 10° N 19:51:53 11° NNE 19:53:24 10° NNE
Cosmos 1980 3.8 19:46:53 10° NNW 19:52:27 54° ENE 19:55:59 22° SE
COSMO-SKYMED 1 3.5 19:50:16 10° N 19:54:28 50° WNW 19:58:40 10° SSW
Resurs 01 Rocket 3.2 19:57:31 19° NE 19:57:31 19° NE 19:59:27 10° NNE
Cosmos 1110 Rocket 3.9 19:51:28 10° NNW 19:56:48 68° ENE 20:01:18 14° SSE
CZ-4C R/B 2.2 19:51:50 10° SW 19:57:04 80° NW 20:02:54 11° NE
Cosmos 2098 Rocket 3.7 19:53:54 10° SSW 19:58:42 76° W 20:04:51 10° N
Meteor 2-3 Rocket 4.3 19:54:11 10° N 19:59:28 35° ENE 20:00:30 33° E
FREGAT/IRIS 3.0 20:00:58 48° N 20:00:58 48° N 20:03:18 10° N
FENGYUN 3A 3.9 19:56:23 10° S 20:01:46 72° WSW 20:07:12 10° NNW
COSMOS 2428 3.7 19:56:42 10° NW 20:02:09 48° WSW 20:07:35 10° S
Abrixas 4.0 20:01:02 10° WSW 20:02:09 25° W 20:02:09 25° W
USA 32 4.3 19:58:38 10° N 20:03:36 42° E 20:04:44 37° ESE
Cosmos 2333 Rocket 2.2 19:59:23 10° NNW 20:05:10 86° WSW 20:10:56 10° SSE
Cosmos 1805 Rocket 4.3 20:01:30 10° NNW 20:05:48 55° W 20:10:07 10° S
Cosmos 2219 3.6 20:01:32 10° SW 20:07:14 66° WNW 20:12:58 10° NNE
Cosmos 44 Rocket 4.2 20:03:14 10° WSW 20:07:44 45° NW 20:11:55 12° NNE
Cosmos 1535 Rocket 4.5 20:02:14 10° S 20:08:21 81° W 20:14:29 10° N
Meteor 2-10 3.8 20:05:46 10° S 20:10:48 87° E 20:15:59 10° N
Cosmos 2297 Rocket 2.4 20:08:17 10° S 20:13:37 45° ESE 20:14:04 44° E
Cosmos 1666 Rocket 3.8 20:10:55 10° NNW 20:15:15 69° W 20:19:32 10° S
Cosmos 1633 Rocket 3.2 20:15:30 10° NNW 20:19:56 75° W 20:24:21 10° S
Cosmos 1726 3.7 20:17:01 10° SW 20:20:26 35° WNW 20:23:52 10° N
CSL-04 DEB 4.3 20:20:49 67° NNE 20:20:49 67° NNE 20:24:29 10° N
Cosmos 1328 Rocket 3.7 20:16:11 10° S 20:25:10 - NNE 20:19:44 54° SSE
Envisat 3.8 20:24:49 36° NE 20:24:49 36° NE 20:28:21 10° N
Cosmos 2082 3.7 20:18:30 10° S 20:24:02 53° ESE 20:24:19 53° E
Cosmos 2251 Rocket 3.4 20:19:38 10° S 20:24:50 61° ESE 20:25:27 57° ENE
Cosmos 2219 Rocket 3.3 20:29:21 10° NW 20:34:36 42° WSW 20:39:50 10° S
Meteor 2-2 Rocket 4.3 20:32:49 10° SSW 20:38:31 76° WNW 20:44:10 10° N
ALOS 4.4 20:36:40 10° SSW 20:40:34 26° W 20:44:31 10° NW
Thor Agena Rocket 4.2 20:37:03 10° N 20:42:00 53° WNW 20:46:53 10° SW
USA 267 3.9 20:48:34 37° SSE 20:48:34 37° SSE 20:53:06 10° SSW
BREEZE-M DEB (TANK) 3.6 20:51:06 10° WNW 21:04:04 65° SW 21:04:20 64° SSW
Lacrosse 5 rocket 4.0 21:03:46 10° NNW 21:04:48 14° NNW 21:04:48 14° NNW
MOS 1-B Rocket 4.2 21:06:24 48° SSW 21:07:49 63° WSW 21:14:01 10° NNW
Cosmos 2237 Rocket 3.3 21:06:40 10° NW 21:11:57 39° WSW 21:13:39 32° SW
Cosmos 2227 Rocket 3.0 21:14:54 10° SW 21:20:20 47° WNW 21:21:12 44° NNW
USA 234 3.9 21:23:45 43° N 21:23:45 43° N 21:29:07 10° NW
SL-16 R/B 3.1 21:19:20 10° NNW 21:23:15 45° NW 21:23:15 45° NW
Resurs 01 Rocket 4.2 21:35:06 17° NW 21:35:06 17° NW 21:36:20 10° NNW
ATLAS 5 CENTAUR R/B 4.3 21:33:44 10° NNW 21:35:38 18° N 21:35:38 18° N
CZ-4C R/B 4.3 21:42:24 10° WNW 21:46:41 22° NNW 21:48:07 20° N
Cosmos 2297 Rocket 4.1 21:52:52 10° WSW 21:56:00 25° W 21:56:00 25° W
